Location: Artiguedieu
(43.5000°N, 0.5454°E)
Time: 20:53:59
(UTC+00:00)

Transit 2A - Pass Details

Date: 31 July 2021
Orbit: 594 x 964 km, 66.7° (Epoch: 28 September)

Event Time Altitude Azimuth Distance (km) Brightness Sun altitude
Rises 12:45:55 0° 340° (NNW) 3,160 9.0 63.1°
Reaches altitude 10° 12:49:59 10° 12° (NNE) 2,333 8.4 62.9°
Maximum altitude 12:51:56 12° 33° (NNE) 2,250 8.3 62.7°
Drops below altitude 10° 12:53:55 10° 54° (NE) 2,423 8.5 62.5°
Sets 12:58:22 0° 85° (E) 3,453 9.2 62.2°
